Angel Fire, NM

5:05 PM MST on December 06, 2019 (GMT -0700)
Angel Fire

Weather History for KAXX - November, 2019

Change the Weather History Date:

Friday, November 15, 2019

  Actual Average (KSKX) Record (KSKX)
Temperature  
Mean Temperature 34 °F -  
Max Temperature 58 °F 48 °F 68 °F (2016)
Min Temperature 9 °F 19 °F 10 °F (2018)
Degree Days  
Heating Degree Days 32    
Moisture  
Dew Point 12 °F    
Average Humidity 55    
Maximum Humidity 90    
Minimum Humidity 14    
Precipitation  
Precipitation 0.00 in - - ()
Sea Level Pressure  
Sea Level Pressure 30.37 in    
Wind  
Wind Speed 1 mph (WSW)    
Max Wind Speed 14 mph    
Max Gust Speed 17 mph    
Visibility 10 miles    
Events      
Averages and records for this station are not official NWS values.
T = Trace of Precipitation, MM = Missing Value Source: NWS Daily Summary

Daily Weather History Graph

Daily Weather History Graph

Search for Another Location

Airport or City:

Astronomy

Nov. 15, 2019 Rise Set
Actual Time 6:38 AM MST 4:52 PM MST
Civil Twilight 6:10 AM MST 5:20 PM MST
Nautical Twilight 5:39 AM MST 5:51 PM MST
Astronomical Twilight 5:09 AM MST 6:21 PM MST
Moon 7:33 PM MST (11/15) 9:34 AM MST (11/15)
Length of Visible Light 11h 09m
Length of Day
10h 14m
Waning Gibbous, 89% of the Moon is Illuminated
Nov 15
Waning Gibbous
Nov 19
Last Quarter
Nov 26
New
Dec 3
First Quarter
Dec 11
Full

Hourly Weather History & Observations

Time (MST) Temp. Windchill Dew Point Humidity Pressure Visibility Wind Dir Wind Speed Gust Speed Precip Events Conditions
12:15 AM 21.0 °F - 14.7 °F 77% 30.41 in 10.0 mi Calm Calm - N/A   Clear
12:35 AM 21.0 °F - 14.7 °F 77% 30.41 in 10.0 mi Calm Calm - N/A   Clear
12:55 AM 19.9 °F - 14.4 °F 79% 30.41 in 10.0 mi Calm Calm - N/A   Clear
1:15 AM 18.5 °F - 14.0 °F 83% 30.41 in 10.0 mi Calm Calm - N/A   Clear
1:35 AM 15.4 °F - 11.7 °F 85% 30.40 in 10.0 mi Calm Calm - N/A   Clear
1:55 AM 16.9 °F - 12.9 °F 84% 30.40 in 10.0 mi Calm Calm - N/A   Clear
2:35 AM 13.8 °F - 10.8 °F 88% 30.39 in 10.0 mi Calm Calm - N/A   Clear
2:55 AM 12.9 °F - 9.0 °F 84% 30.39 in 10.0 mi Calm Calm - N/A   Clear
3:15 AM 12.9 °F - 9.1 °F 85% 30.40 in 10.0 mi Calm Calm - N/A   Clear
3:35 AM 11.1 °F - 8.8 °F 90% 30.40 in 10.0 mi Calm Calm - N/A   Clear
3:55 AM 13.1 °F - 9.5 °F 86% 30.40 in 10.0 mi Calm Calm - N/A   Clear
4:15 AM 10.4 °F - 7.3 °F 87% 30.41 in 10.0 mi Calm Calm - N/A   Clear
4:35 AM 11.7 °F - 7.9 °F 85% 30.41 in 10.0 mi Calm Calm - N/A   Clear
4:55 AM 10.6 °F - 8.1 °F 90% 30.41 in 10.0 mi Calm Calm - N/A   Clear
5:15 AM 11.3 °F - 8.2 °F 87% 30.41 in 10.0 mi Calm Calm - N/A   Clear
5:35 AM 12.2 °F - 9.0 °F 87% 30.41 in 10.0 mi Calm Calm - N/A   Clear
6:15 AM 10.4 °F - 6.8 °F 85% 30.42 in 10.0 mi Calm Calm - N/A   Clear
6:35 AM 9.7 °F - 7.0 °F 89% 30.43 in 10.0 mi Calm Calm - N/A   Clear
6:55 AM 10.4 °F - 7.0 °F 86% 30.43 in 10.0 mi Calm Calm - N/A   Clear
7:35 AM 12.0 °F - 8.8 °F 87% 30.43 in 10.0 mi Calm Calm - N/A   Clear
7:55 AM 12.6 °F - 9.5 °F 88% 30.44 in 10.0 mi Calm Calm - N/A   Clear
8:15 AM 20.5 °F - 16.5 °F 85% 30.44 in 10.0 mi Calm Calm - N/A   Clear
8:35 AM 25.9 °F - 18.7 °F 74% 30.43 in 10.0 mi Calm Calm - N/A   Clear
8:55 AM 27.5 °F - 18.9 °F 70% 30.43 in 10.0 mi Calm Calm - N/A   Clear
9:15 AM 28.4 °F - 18.7 °F 67% 30.43 in 10.0 mi Calm Calm - N/A   Clear
9:35 AM 31.6 °F - 19.2 °F 60% 30.43 in 10.0 mi Calm Calm - N/A   Clear
9:55 AM 34.5 °F - 18.3 °F 52% 30.42 in 10.0 mi Calm Calm - N/A   Clear
10:15 AM 39.0 °F - 18.0 °F 43% 30.41 in 10.0 mi Calm Calm - N/A   Clear
10:35 AM 43.7 °F - 17.1 °F 34% 30.40 in 10.0 mi Calm Calm - N/A   Clear
10:55 AM 47.1 °F - 16.5 °F 29% 30.39 in 10.0 mi Calm Calm - N/A   Clear
11:15 AM 50.5 °F - 16.9 °F 26% 30.38 in 10.0 mi ENE 3.5 mph - N/A   Clear
11:35 AM 52.2 °F - 15.8 °F 24% 30.37 in 10.0 mi Calm Calm - N/A   Clear
11:55 AM 55.0 °F - 15.1 °F 21% 30.35 in 10.0 mi Calm Calm - N/A   Clear
12:15 PM 56.5 °F - 11.5 °F 17% 30.34 in 10.0 mi WSW 3.5 mph - N/A   Clear
12:35 PM 58.3 °F - 9.9 °F 15% 30.33 in 10.0 mi West 5.8 mph - N/A   Clear
12:55 PM 57.6 °F - 9.0 °F 14% 30.33 in 10.0 mi WSW 8.1 mph - N/A   Clear
1:15 PM 58.1 °F - 8.6 °F 14% 30.31 in 10.0 mi WSW 13.8 mph - N/A   Clear
1:55 PM 57.9 °F - 9.0 °F 14% 30.31 in 10.0 mi West 12.7 mph - N/A   Scattered Clouds
2:15 PM 57.6 °F - 9.3 °F 15% 30.31 in 10.0 mi West 11.5 mph - N/A   Scattered Clouds
2:35 PM 57.2 °F - 9.5 °F 15% 30.31 in 10.0 mi West 12.7 mph 17.3 mph N/A   Clear
2:55 PM 55.9 °F - 10.0 °F 16% 30.30 in 10.0 mi West 9.2 mph - N/A   Clear
3:15 PM 55.0 °F - 11.7 °F 18% 30.30 in 10.0 mi West 8.1 mph - N/A   Clear
3:35 PM 54.0 °F - 11.8 °F 19% 30.31 in 10.0 mi West 5.8 mph - N/A   Clear
3:55 PM 52.5 °F - 12.2 °F 20% 30.31 in 10.0 mi West 4.6 mph - N/A   Clear
4:15 PM 51.8 °F - 11.7 °F 20% 30.31 in 10.0 mi South 3.5 mph - N/A   Clear
4:35 PM 49.5 °F - 11.8 °F 22% 30.31 in 10.0 mi South 4.6 mph - N/A   Clear
4:55 PM 49.1 °F - 11.3 °F 22% 30.32 in 10.0 mi Calm Calm - N/A   Clear
5:15 PM 48.6 °F - 11.1 °F 22% 30.33 in 10.0 mi Calm Calm - N/A   Clear
5:35 PM 48.0 °F - 10.4 °F 22% 30.33 in 10.0 mi Calm Calm - N/A   Clear
5:55 PM 47.3 °F - 10.0 °F 22% 30.33 in 10.0 mi Calm Calm - N/A   Clear
6:15 PM 37.8 °F 33.3 °F 9.7 °F 31% 30.33 in 10.0 mi SW 5.8 mph - N/A   Clear
6:55 PM 32.5 °F - 10.4 °F 40% 30.33 in 10.0 mi Calm Calm - N/A   Clear
7:15 PM 25.3 °F - 11.3 °F 55% 30.33 in 10.0 mi Calm Calm - N/A   Clear
7:35 PM 25.2 °F - 10.9 °F 55% 30.33 in 10.0 mi Calm Calm - N/A   Clear
7:55 PM 27.5 °F - 11.5 °F 51% 30.33 in 10.0 mi Calm Calm - N/A   Clear
8:15 PM 24.1 °F - 10.8 °F 57% 30.33 in 10.0 mi Calm Calm - N/A   Clear
8:35 PM 21.6 °F 16.8 °F 11.3 °F 65% 30.33 in 10.0 mi NNW 3.5 mph - N/A   Clear
9:15 PM 24.6 °F - 11.3 °F 57% 30.33 in 10.0 mi Calm Calm - N/A   Clear
9:35 PM 19.6 °F - 9.9 °F 66% 30.33 in 10.0 mi Calm Calm - N/A   Clear
9:55 PM 20.3 °F - 10.2 °F 65% 30.33 in 10.0 mi Calm Calm - N/A   Clear
10:15 PM 20.7 °F - 10.9 °F 66% 30.32 in 10.0 mi Calm Calm - N/A   Clear
10:35 PM 18.7 °F - 10.4 °F 70% 30.32 in 10.0 mi Calm Calm - N/A   Clear
10:55 PM 15.1 °F - 8.6 °F 76% 30.32 in 10.0 mi Calm Calm - N/A   Clear
11:35 PM 14.2 °F - 8.8 °F 79% 30.31 in 10.0 mi Calm Calm - N/A   Clear
11:55 PM 13.5 °F - 9.0 °F 82% 30.30 in 10.0 mi Calm Calm - N/A   Clear